sat.trackr.live / text

‹ back to catalog

HULIANWANG DIGUI-117

NORAD 66956 · 2025-287D

PAYLOAD ACTIVE UNKNOWN

§ Identity

Operator
Country
PRC
Launch date
2025-12-08
Launch site
TAISC
Launch vehicle
Mass (kg)
RCS (m²)

External: N2YO · Heavens-Above · Gunter

§ Orbital elements

Epoch: 2026-09-20T21:56:33.786816Z

Period
108.73 min
Inclination
86.4906°
Eccentricity
0.0002995
Mean motion
13.24406151 rev/d
Perigee alt
1,165.7 km
Apogee alt
1,170.2 km
Semi-major
7,546.1 km
B*
-1.6644e-4
RAAN
250.0307°
Arg perigee
101.4966°
Mean anomaly
258.6505°
Rev number
3,801

§ Raw data

HULIANWANG DIGUI-1171 66956U 25287D   26263.91427994 -.00000057  00000+0 -16644-3 0  99972 66956  86.4906 250.0307 0002995 101.4966 258.6505 13.24406151 38016

JSON: /api/v1/satellites/66956 · /tle

For live sub-satellite position, see the globe view (requires WebGL).

§ Visibility from observer

Set your observer location to see the next 7 days of passes ≥ 10°. The values pass through the URL so the page stays shareable.

No JS? Fill the form by hand. The geolocation button needs JavaScript.